Change the Weather History Date:

Tuesday, October 18, 2011

  Actual Average Record
Temperature  
Mean Temperature 78 °F -  
Max Temperature 81 °F 83 °F 90 °F (1985)
Min Temperature 75 °F 69 °F 56 °F (1954)
Cooling Degree Days 13    
Growing Degree Days 28 (Base 50)    
Moisture  
Dew Point 73 °F    
Average Humidity 88    
Maximum Humidity 100    
Minimum Humidity 74    
Precipitation  
Precipitation 0.05 in - - ()
Sea Level Pressure  
Sea Level Pressure 29.66 in    
Wind  
Wind Speed 11 mph (SE)    
Max Wind Speed 21 mph    
Max Gust Speed 26 mph    
Visibility 10 miles    
Events Rain    
Averages and records for this station are not official NWS values.
T = Trace of Precipitation, MM = Missing Value Source: NWS Daily Summary

Daily Weather History Graph

Daily Weather History Graph

Search for Another Location

Airport or City:

Trip Planner

Search our weather history database for the weather conditions in past years. The results will help you decide how hot, cold, wet, or windy it might be!

Date:

Astronomy

Oct. 18, 2011 Rise Set
Actual Time 7:32 AM EDT 6:58 PM EDT
Civil Twilight 7:08 AM EDT 7:22 PM EDT
Nautical Twilight 6:41 AM EDT 7:49 PM EDT
Astronomical Twilight 6:14 AM EDT 8:16 PM EDT
Moon 11:55 PM EDT (10/18) 1:04 PM EDT (10/18)
Length of Visible Light 12h 13m
Length of Day
11h 26m
Waning Gibbous, 65% of the Moon is Illuminated
Oct 18
Waning Gibbous
Oct 19
Last Quarter
Oct 26
New
Nov 2
First Quarter
Nov 10
Full

Hourly Weather History & Observations

Time (EDT) Temp. Heat Index Dew Point Humidity Pressure Visibility Wind Dir Wind Speed Gust Speed Precip Events Conditions
12:53 AM 75.9 °F - 70.0 °F 82% 29.85 in 10.0 mi East 6.9 mph - N/A   Mostly Cloudy
1:53 AM 75.9 °F - 71.1 °F 85% 29.83 in 10.0 mi ESE 9.2 mph - N/A   Overcast
2:33 AM 75.2 °F - 71.6 °F 89% 29.82 in 10.0 mi ESE 6.9 mph - N/A   Overcast
2:53 AM 75.9 °F - 71.1 °F 85% 29.81 in 10.0 mi ESE 10.4 mph - N/A   Overcast
3:53 AM 75.0 °F - 71.1 °F 87% 29.80 in 10.0 mi ESE 10.4 mph - N/A   Overcast
4:53 AM 75.0 °F - 70.0 °F 84% 29.78 in 10.0 mi ESE 9.2 mph - N/A   Clear
5:53 AM 75.0 °F - 70.0 °F 84% 29.79 in 10.0 mi ESE 8.1 mph 17.3 mph N/A   Partly Cloudy
6:53 AM 75.0 °F - 70.0 °F 84% 29.78 in 10.0 mi ESE 10.4 mph - N/A   Partly Cloudy
7:53 AM 75.2 °F - 69.8 °F 83% 29.78 in 10.0 mi ESE 8.1 mph - N/A   Mostly Cloudy
8:22 AM 75.2 °F - 71.6 °F 89% 29.79 in 10.0 mi ESE 6.9 mph - N/A   Overcast
8:53 AM 75.9 °F - 71.1 °F 85% 29.78 in 10.0 mi SE 10.4 mph - N/A   Overcast
9:53 AM 77.0 °F - 72.0 °F 84% 29.79 in 10.0 mi SE 10.4 mph - N/A   Overcast
10:01 AM 77.0 °F - 71.6 °F 83% 29.78 in 10.0 mi SE 12.7 mph 18.4 mph N/A   Overcast
10:49 AM 77.0 °F - 71.6 °F 83% 29.79 in 10.0 mi SE 9.2 mph - N/A   Overcast
10:53 AM 77.0 °F - 72.0 °F 84% 29.79 in 10.0 mi SE 10.4 mph - N/A   Overcast
11:53 AM 78.1 °F - 72.0 °F 81% 29.74 in 10.0 mi SE 19.6 mph 26.5 mph N/A   Scattered Clouds
12:53 PM 78.1 °F - 72.0 °F 81% 29.73 in 10.0 mi SE 16.1 mph 20.7 mph 0.00 in   Scattered Clouds
1:13 PM 78.8 °F - 71.6 °F 78% 29.72 in 10.0 mi SE 15.0 mph - 0.00 in   Overcast
1:53 PM 81.0 °F 85.2 °F 72.0 °F 74% 29.68 in 10.0 mi SE 15.0 mph 23.0 mph 0.00 in   Scattered Clouds
2:09 PM 78.8 °F - 71.6 °F 78% 29.68 in 10.0 mi SSE 20.7 mph 26.5 mph N/A   Mostly Cloudy
2:25 PM 78.8 °F - 71.6 °F 78% 29.66 in 10.0 mi SE 17.3 mph 24.2 mph N/A   Mostly Cloudy
2:53 PM 80.1 °F 83.8 °F 72.0 °F 76% 29.65 in 10.0 mi SE 16.1 mph 25.3 mph N/A   Mostly Cloudy
3:53 PM 78.1 °F - 72.0 °F 81% 29.64 in 10.0 mi SE 11.5 mph 21.9 mph N/A   Overcast
4:28 PM 75.2 °F - 71.6 °F 89% 29.61 in 4.0 mi SE 15.0 mph 25.3 mph N/A Rain Rain
4:53 PM 75.0 °F - 72.0 °F 90% 29.61 in 6.0 mi SE 15.0 mph 24.2 mph 0.03 in Rain Light Rain
5:53 PM 75.9 °F - 72.0 °F 87% 29.60 in 10.0 mi SE 13.8 mph 20.7 mph 0.00 in   Overcast
6:46 PM 75.2 °F - 73.4 °F 94% 29.59 in 10.0 mi SE 11.5 mph - 0.00 in   Mostly Cloudy
6:53 PM 75.9 °F - 73.0 °F 91% 29.59 in 10.0 mi SE 9.2 mph 21.9 mph 0.00 in   Mostly Cloudy
7:00 PM 77.0 °F - 73.4 °F 89% 29.60 in 10.0 mi SE 13.8 mph 18.4 mph N/A   Overcast
7:39 PM 77.0 °F - 73.4 °F 89% 29.60 in 10.0 mi SSE 9.2 mph - N/A   Overcast
7:53 PM 77.0 °F - 73.0 °F 88% 29.60 in 10.0 mi SE 10.4 mph - N/A   Overcast
8:00 PM 77.0 °F - 73.4 °F 89% 29.60 in 10.0 mi SE 11.5 mph - N/A   Overcast
8:45 PM 75.2 °F - 73.4 °F 94% 29.56 in 10.0 mi SE 15.0 mph 20.7 mph 0.00 in   Mostly Cloudy
8:53 PM 75.2 °F - 73.4 °F 94% 29.55 in 10.0 mi SE 13.8 mph - N/A   Mostly Cloudy
9:31 PM 75.2 °F - 73.4 °F 94% 29.56 in 10.0 mi SSE 11.5 mph - N/A   Mostly Cloudy
9:42 PM 75.2 °F - 73.4 °F 94% 29.56 in 10.0 mi SSE 10.4 mph - N/A   Mostly Cloudy
9:45 PM 75.2 °F - 73.4 °F 94% 29.57 in 10.0 mi SE 10.4 mph - N/A   Mostly Cloudy
9:53 PM 75.9 °F - 73.9 °F 94% 29.57 in 10.0 mi SSE 9.2 mph - N/A   Overcast
10:29 PM 77.0 °F - 75.2 °F 94% 29.58 in 10.0 mi SSE 8.1 mph - 0.01 in Rain Light Rain
10:38 PM 77.0 °F - 75.2 °F 94% 29.57 in 9.0 mi SSE 6.9 mph - 0.01 in Rain Light Rain
10:53 PM 78.1 °F - 75.9 °F 93% 29.57 in 10.0 mi South 9.2 mph - 0.01 in Rain Light Rain
11:06 PM 78.8 °F - 77.0 °F 94% 29.57 in 10.0 mi South 11.5 mph - 0.01 in Rain Light Rain
11:14 PM 78.8 °F - 77.0 °F 94% 29.57 in 10.0 mi South 12.7 mph - 0.01 in   Overcast
11:24 PM 78.8 °F - 77.0 °F 94% 29.57 in 10.0 mi South 12.7 mph - 0.01 in   Mostly Cloudy
11:31 PM 78.8 °F - 78.8 °F 100% 29.57 in 10.0 mi South 11.5 mph 20.7 mph 0.01 in   Mostly Cloudy
11:41 PM 80.6 °F 88.1 °F 78.8 °F 94% 29.57 in 10.0 mi South 11.5 mph 19.6 mph 0.01 in   Mostly Cloudy
11:51 PM 80.6 °F 88.1 °F 78.8 °F 94% 29.56 in 10.0 mi SSW 10.4 mph - 0.01 in   Overcast
11:53 PM 80.1 °F 86.4 °F 78.1 °F 94% 29.56 in 10.0 mi SSW 9.2 mph - 0.01 in   Overcast